User: anonymous   Login
Location: Waldport
(44.4270°N, 124.0680°W)
Time: 07:30:34
(UTC-07:00)
Language:

Cosmos 1570 Rocket - Orbit

View from above orbital plane
View from above orbital plane
View from above satellite
View from above satellite

Ground track
Ground track

The orbit data is extracted from the following two-line orbital elements,

1 15032U 84056B   15150.19406725  .00000137  00000-0  57479-4 0  9997
2 15032 074.0716 005.2594 0017426 353.8680 139.8790 14.34574063619512
Epoch (UTC): 30 May 2015 04:39:27
Eccentricity: 0.0017426
inclination: 74.0716°
perigee height: 764 km
apogee height: 789 km
right ascension of ascending node: 5.2594°
argument of perigee: 353.8680°
revolutions per day: 14.34574063
mean anomaly at epoch: 139.8790°
orbit number at epoch: 61951

The dashed part of the orbit path shows where the satellite is in the earth's shadow,  

DLR